GEFSGL_prec_meanprecacc_012.txt.gz
Total_Precipitation_Accumulation
0.17 0.17 0.13 0.08 0.07 0.05 0.04 0.02 0.01 0.01 0.00 0.01 0.02 0.02 0.03 0.04 0.03 0.01 0.01 0.01 0.03 0.05 0.05 0.07 0.11 0.14 0.12 0.10 0.10 0.18 0.23 0.18 0.11 0.10 0.08 0.12 0.10 0.04 0.02 0.01 0.00 0.00 0.00
0.14 0.14 0.12 0.09 0.07 0.05 0.04 0.03 0.02 0.02 0.02 0.02 0.02 0.03 0.04 0.02 0.02 0.01 0.01 0.00 0.00 0.01 0.01 0.03 0.06 0.11 0.13 0.14 0.13 0.16 0.20 0.22 0.19 0.17 0.14 0.13 0.14 0.11 0.06 0.03 0.01 0.00 0.00
0.20 0.15 0.14 0.12 0.09 0.06 0.04 0.04 0.03 0.04 0.05 0.05 0.02 0.03 0.05 0.05 0.03 0.01 0.01 0.00 0.00 0.00 0.01 0.02 0.04 0.07 0.09 0.14 0.19 0.24 0.25 0.24 0.22 0.20 0.19 0.17 0.14 0.13 0.09 0.04 0.01 0.01 0.00
0.39 0.28 0.22 0.17 0.12 0.10 0.09 0.09 0.08 0.08 0.09 0.08 0.06 0.05 0.09 0.10 0.07 0.03 0.02 0.01 0.00 0.00 0.01 0.01 0.02 0.04 0.08 0.17 0.26 0.30 0.29 0.27 0.26 0.27 0.29 0.26 0.19 0.13 0.09 0.05 0.03 0.01 0.00
0.53 0.46 0.35 0.25 0.18 0.17 0.21 0.25 0.20 0.15 0.16 0.14 0.11 0.09 0.12 0.13 0.11 0.08 0.05 0.03 0.01 0.00 0.00 0.01 0.01 0.02 0.06 0.13 0.25 0.35 0.35 0.31 0.30 0.33 0.33 0.26 0.18 0.12 0.07 0.05 0.03 0.02 0.00
0.53 0.52 0.39 0.33 0.27 0.25 0.28 0.36 0.36 0.25 0.23 0.21 0.18 0.12 0.09 0.12 0.16 0.13 0.09 0.05 0.01 0.00 0.00 0.01 0.01 0.01 0.03 0.07 0.11 0.21 0.30 0.33 0.34 0.33 0.33 0.30 0.23 0.15 0.10 0.06 0.03 0.01 0.00
0.40 0.40 0.31 0.29 0.36 0.37 0.40 0.40 0.33 0.25 0.27 0.29 0.24 0.18 0.12 0.12 0.14 0.13 0.16 0.14 0.05 0.02 0.01 0.01 0.01 0.01 0.02 0.03 0.06 0.13 0.16 0.20 0.23 0.24 0.24 0.22 0.22 0.19 0.15 0.09 0.04 0.02 0.01
0.19 0.16 0.13 0.20 0.29 0.30 0.29 0.26 0.21 0.21 0.27 0.34 0.28 0.24 0.23 0.18 0.17 0.21 0.19 0.13 0.07 0.04 0.03 0.01 0.01 0.01 0.01 0.03 0.04 0.06 0.09 0.13 0.15 0.14 0.14 0.16 0.19 0.21 0.21 0.21 0.16 0.08 0.03
0.02 0.02 0.04 0.05 0.06 0.06 0.05 0.07 0.10 0.14 0.18 0.16 0.20 0.33 0.31 0.26 0.30 0.27 0.18 0.09 0.06 0.06 0.07 0.04 0.02 0.01 0.01 0.03 0.05 0.05 0.04 0.08 0.13 0.19 0.26 0.27 0.28 0.31 0.31 0.29 0.19 0.11 0.05
0.00 0.00 0.00 0.00 0.00 0.00 0.00 0.01 0.03 0.06 0.08 0.08 0.11 0.21 0.27 0.28 0.26 0.15 0.15 0.15 0.14 0.15 0.12 0.07 0.05 0.03 0.02 0.03 0.07 0.07 0.04 0.05 0.14 0.21 0.25 0.28 0.26 0.27 0.30 0.28 0.25 0.19 0.12
0.00 0.00 0.00 0.00 0.00 0.00 0.00 0.00 0.00 0.00 0.01 0.03 0.06 0.06 0.08 0.09 0.09 0.08 0.12 0.12 0.12 0.12 0.09 0.05 0.04 0.04 0.03 0.05 0.07 0.06 0.05 0.06 0.10 0.12 0.11 0.12 0.11 0.12 0.14 0.17 0.18 0.17 0.15
0.00 0.00 0.00 0.00 0.00 0.00 0.00 0.00 0.00 0.00 0.00 0.00 0.01 0.00 0.01 0.01 0.01 0.02 0.02 0.03 0.04 0.03 0.03 0.04 0.05 0.06 0.06 0.08 0.07 0.05 0.06 0.05 0.04 0.03 0.03 0.03 0.03 0.03 0.03 0.05 0.08 0.11 0.13
0.00 0.00 0.00 0.00 0.00 0.00 0.00 0.00 0.00 0.00 0.00 0.00 0.00 0.00 0.01 0.02 0.01 0.01 0.01 0.01 0.02 0.01 0.03 0.07 0.10 0.13 0.09 0.06 0.06 0.05 0.04 0.05 0.04 0.02 0.01 0.01 0.01 0.01 0.02 0.03 0.04 0.05 0.07
0.00 0.00 0.00 0.00 0.00 0.00 0.00 0.00 0.00 0.00 0.00 0.00 0.00 0.01 0.04 0.04 0.03 0.02 0.01 0.02 0.02 0.02 0.03 0.08 0.14 0.16 0.11 0.07 0.05 0.04 0.04 0.05 0.04 0.02 0.01 0.01 0.00 0.01 0.02 0.03 0.02 0.01 0.01
0.00 0.00 0.00 0.00 0.00 0.00 0.00 0.00 0.00 0.00 0.00 0.00 0.00 0.01 0.01 0.01 0.01 0.02 0.04 0.05 0.04 0.03 0.05 0.12 0.20 0.17 0.12 0.08 0.06 0.05 0.05 0.05 0.03 0.02 0.01 0.01 0.01 0.01 0.00 0.00 0.00 0.00 0.00
0.00 0.00 0.00 0.00 0.00 0.00 0.00 0.00 0.00 0.00 0.01 0.01 0.01 0.01 0.01 0.01 0.03 0.05 0.09 0.11 0.10 0.11 0.12 0.21 0.26 0.25 0.21 0.14 0.08 0.06 0.06 0.06 0.04 0.02 0.01 0.01 0.01 0.01 0.01 0.01 0.01 0.01 0.01
0.00 0.00 0.00 0.00 0.00 0.00 0.00 0.00 0.00 0.00 0.00 0.00 0.00 0.00 0.01 0.03 0.06 0.12 0.18 0.19 0.22 0.36 0.47 0.47 0.45 0.42 0.40 0.30 0.18 0.11 0.07 0.04 0.02 0.02 0.02 0.01 0.01 0.01 0.01 0.01 0.01 0.01 0.01
0.00 0.00 0.00 0.00 0.00 0.00 0.00 0.00 0.00 0.00 0.00 0.00 0.00 0.00 0.01 0.02 0.08 0.18 0.28 0.36 0.41 0.53 0.63 0.60 0.62 0.59 0.54 0.37 0.21 0.12 0.06 0.03 0.02 0.01 0.01 0.00 0.01 0.01 0.01 0.00 0.00 0.00 0.00
0.00 0.00 0.00 0.00 0.00 0.00 0.00 0.00 0.00 0.00 0.00 0.00 0.00 0.00 0.00 0.01 0.03 0.08 0.14 0.19 0.21 0.27 0.33 0.35 0.37 0.36 0.31 0.20 0.09 0.05 0.02 0.00 0.00 0.00 0.00 0.00 0.00 0.00 0.00 0.01 0.01 0.01 0.01
0.00 0.00 0.00 0.00 0.00 0.00 0.00 0.00 0.00 0.00 0.00 0.00 0.00 0.00 0.00 0.00 0.01 0.02 0.03 0.04 0.05 0.08 0.10 0.10 0.10 0.09 0.07 0.04 0.02 0.01 0.01 0.01 0.00 0.00 0.00 0.00 0.00 0.00 0.00 0.01 0.01 0.01 0.01
0.00 0.00 0.00 0.00 0.00 0.00 0.00 0.00 0.00 0.00 0.00 0.00 0.00 0.00 0.00 0.00 0.01 0.01 0.01 0.01 0.02 0.02 0.03 0.03 0.03 0.03 0.01 0.01 0.01 0.01 0.01 0.00 0.00 0.00 0.00 0.00 0.00 0.01 0.01 0.01 0.01 0.02 0.02
0.00 0.00 0.00 0.00 0.00 0.00 0.00 0.00 0.00 0.00 0.00 0.00 0.00 0.00 0.01 0.02 0.03 0.02 0.01 0.01 0.02 0.02 0.02 0.02 0.01 0.02 0.01 0.01 0.01 0.00 0.00 0.00 0.00 0.00 0.00 0.00 0.00 0.00 0.01 0.01 0.02 0.03 0.03
0.00 0.00 0.00 0.00 0.00 0.00 0.00 0.00 0.00 0.00 0.00 0.00 0.00 0.00 0.00 0.01 0.02 0.02 0.01 0.01 0.01 0.01 0.01 0.01 0.01 0.01 0.01 0.00 0.00 0.00 0.00 0.00 0.00 0.00 0.01 0.01 0.01 0.02 0.02 0.03 0.03 0.03 0.03
0.00 0.00 0.00 0.00 0.00 0.00 0.00 0.00 0.00 0.00 0.00 0.00 0.00 0.00 0.00 0.00 0.00 0.00 0.00 0.01 0.01 0.01 0.00 0.00 0.00 0.00 0.00 0.00 0.00 0.00 0.00 0.00 0.00 0.01 0.02 0.02 0.03 0.05 0.07 0.07 0.06 0.06 0.09
0.00 0.00 0.00 0.00 0.00 0.00 0.00 0.00 0.00 0.00 0.00 0.00 0.00 0.00 0.00 0.00 0.00 0.00 0.00 0.00 0.00 0.00 0.00 0.00 0.00 0.00 0.00 0.00 0.00 0.00 0.01 0.01 0.01 0.01 0.01 0.01 0.02 0.04 0.06 0.06 0.06 0.06 0.06
0.00 0.00 0.00 0.00 0.00 0.00 0.00 0.00 0.00 0.00 0.00 0.00 0.00 0.00 0.00 0.00 0.00 0.00 0.00 0.00 0.00 0.00 0.00 0.00 0.00 0.00 0.00 0.00 0.00 0.01 0.01 0.01 0.01 0.01 0.01 0.01 0.02 0.03 0.03 0.03 0.02 0.01 0.01

GEFSGL_prec_meanprecacc_018.txt.gz
Total_Precipitation_Accumulation
0.43 0.46 0.38 0.29 0.23 0.19 0.15 0.12 0.07 0.04 0.02 0.02 0.02 0.02 0.03 0.04 0.03 0.02 0.01 0.01 0.03 0.05 0.06 0.08 0.14 0.21 0.22 0.21 0.22 0.29 0.33 0.26 0.17 0.15 0.12 0.14 0.11 0.05 0.04 0.03 0.01 0.00 0.00
0.35 0.35 0.30 0.25 0.20 0.17 0.14 0.10 0.06 0.03 0.03 0.02 0.02 0.03 0.04 0.03 0.02 0.01 0.01 0.01 0.01 0.01 0.02 0.03 0.08 0.14 0.18 0.20 0.22 0.25 0.28 0.31 0.27 0.24 0.20 0.16 0.15 0.12 0.08 0.04 0.03 0.02 0.01
0.37 0.31 0.30 0.27 0.23 0.20 0.13 0.08 0.05 0.05 0.05 0.05 0.03 0.03 0.05 0.06 0.04 0.02 0.02 0.01 0.01 0.01 0.01 0.02 0.05 0.08 0.12 0.17 0.24 0.30 0.32 0.30 0.29 0.27 0.26 0.23 0.17 0.15 0.10 0.05 0.03 0.03 0.04
0.57 0.45 0.37 0.31 0.24 0.19 0.14 0.13 0.10 0.10 0.11 0.10 0.07 0.07 0.11 0.13 0.11 0.07 0.04 0.03 0.02 0.01 0.01 0.01 0.02 0.05 0.10 0.21 0.31 0.37 0.38 0.36 0.36 0.36 0.36 0.33 0.24 0.16 0.10 0.06 0.05 0.04 0.03
0.69 0.60 0.45 0.33 0.24 0.21 0.25 0.28 0.23 0.18 0.20 0.17 0.14 0.12 0.15 0.18 0.17 0.15 0.11 0.07 0.04 0.02 0.01 0.01 0.01 0.03 0.07 0.16 0.28 0.43 0.45 0.43 0.42 0.44 0.43 0.36 0.26 0.17 0.11 0.08 0.06 0.05 0.03
0.67 0.64 0.48 0.40 0.33 0.29 0.32 0.40 0.39 0.28 0.26 0.24 0.20 0.15 0.13 0.16 0.22 0.20 0.15 0.11 0.07 0.04 0.02 0.01 0.01 0.01 0.03 0.07 0.12 0.24 0.35 0.41 0.44 0.43 0.44 0.41 0.33 0.24 0.19 0.13 0.07 0.04 0.03
0.44 0.44 0.35 0.33 0.39 0.40 0.42 0.42 0.35 0.27 0.29 0.30 0.25 0.18 0.13 0.15 0.18 0.16 0.18 0.20 0.16 0.10 0.05 0.02 0.02 0.01 0.02 0.03 0.07 0.13 0.17 0.21 0.25 0.28 0.30 0.30 0.31 0.28 0.24 0.17 0.11 0.08 0.08
0.20 0.16 0.13 0.20 0.29 0.30 0.29 0.26 0.22 0.21 0.27 0.34 0.28 0.24 0.23 0.19 0.19 0.23 0.21 0.21 0.23 0.21 0.15 0.06 0.03 0.01 0.02 0.04 0.05 0.07 0.11 0.14 0.15 0.15 0.16 0.19 0.22 0.26 0.27 0.29 0.25 0.17 0.10
0.02 0.02 0.04 0.05 0.06 0.06 0.05 0.07 0.10 0.14 0.18 0.16 0.20 0.33 0.31 0.26 0.30 0.28 0.21 0.18 0.21 0.23 0.20 0.15 0.10 0.06 0.06 0.05 0.06 0.06 0.06 0.09 0.13 0.19 0.27 0.28 0.29 0.33 0.35 0.36 0.31 0.26 0.21
0.00 0.00 0.00 0.00 0.00 0.00 0.00 0.01 0.03 0.06 0.08 0.08 0.11 0.21 0.27 0.28 0.26 0.15 0.17 0.20 0.21 0.23 0.20 0.16 0.19 0.15 0.12 0.09 0.08 0.11 0.09 0.08 0.15 0.22 0.26 0.28 0.28 0.31 0.36 0.37 0.39 0.40 0.36
0.00 0.00 0.00 0.00 0.00 0.00 0.00 0.00 0.00 0.00 0.01 0.04 0.06 0.06 0.08 0.09 0.09 0.08 0.13 0.14 0.14 0.17 0.14 0.11 0.10 0.13 0.12 0.12 0.10 0.09 0.11 0.09 0.11 0.14 0.12 0.13 0.13 0.15 0.20 0.24 0.30 0.34 0.36
0.00 0.00 0.00 0.00 0.00 0.00 0.00 0.00 0.00 0.00 0.00 0.00 0.01 0.01 0.01 0.01 0.01 0.02 0.02 0.03 0.05 0.06 0.05 0.06 0.06 0.08 0.10 0.12 0.10 0.09 0.09 0.06 0.07 0.06 0.04 0.04 0.04 0.06 0.07 0.10 0.14 0.19 0.23
0.00 0.00 0.00 0.00 0.00 0.00 0.00 0.00 0.00 0.00 0.00 0.00 0.00 0.00 0.01 0.02 0.02 0.02 0.01 0.01 0.02 0.02 0.03 0.07 0.11 0.14 0.11 0.09 0.09 0.08 0.08 0.08 0.08 0.06 0.05 0.03 0.02 0.03 0.04 0.05 0.06 0.08 0.11
0.00 0.00 0.00 0.00 0.00 0.00 0.00 0.00 0.00 0.00 0.00 0.00 0.01 0.02 0.04 0.05 0.03 0.02 0.02 0.03 0.03 0.02 0.03 0.09 0.14 0.17 0.12 0.10 0.09 0.07 0.08 0.09 0.09 0.07 0.05 0.02 0.02 0.02 0.04 0.05 0.05 0.04 0.04
0.00 0.00 0.00 0.00 0.00 0.00 0.00 0.00 0.00 0.00 0.00 0.01 0.01 0.01 0.01 0.02 0.02 0.02 0.04 0.05 0.05 0.04 0.06 0.15 0.23 0.20 0.15 0.11 0.08 0.08 0.08 0.08 0.07 0.06 0.05 0.04 0.03 0.03 0.02 0.02 0.02 0.02 0.03
0.00 0.00 0.00 0.00 0.00 0.00 0.00 0.00 0.00 0.00 0.01 0.01 0.01 0.01 0.01 0.02 0.03 0.06 0.09 0.12 0.11 0.13 0.16 0.28 0.33 0.32 0.28 0.21 0.13 0.11 0.11 0.11 0.09 0.08 0.07 0.05 0.04 0.04 0.04 0.04 0.03 0.04 0.04
0.00 0.00 0.00 0.00 0.00 0.00 0.00 0.00 0.00 0.00 0.00 0.00 0.00 0.01 0.01 0.03 0.06 0.13 0.18 0.20 0.24 0.40 0.53 0.56 0.55 0.51 0.48 0.37 0.24 0.18 0.12 0.09 0.07 0.06 0.05 0.04 0.03 0.03 0.03 0.03 0.03 0.03 0.03
0.00 0.00 0.00 0.00 0.00 0.00 0.00 0.00 0.01 0.01 0.01 0.01 0.00 0.00 0.01 0.02 0.08 0.18 0.28 0.37 0.42 0.57 0.69 0.70 0.74 0.70 0.62 0.45 0.27 0.18 0.11 0.06 0.04 0.03 0.03 0.02 0.01 0.02 0.01 0.01 0.01 0.01 0.01
0.00 0.00 0.00 0.00 0.00 0.00 0.00 0.00 0.00 0.00 0.00 0.01 0.00 0.00 0.00 0.01 0.03 0.08 0.14 0.19 0.21 0.29 0.37 0.42 0.45 0.43 0.37 0.25 0.14 0.09 0.04 0.01 0.01 0.00 0.00 0.00 0.00 0.00 0.01 0.01 0.02 0.02 0.02
0.00 0.00 0.00 0.00 0.00 0.00 0.00 0.00 0.00 0.00 0.00 0.01 0.01 0.00 0.00 0.01 0.01 0.02 0.03 0.04 0.06 0.09 0.11 0.12 0.12 0.10 0.08 0.05 0.03 0.02 0.02 0.01 0.00 0.00 0.00 0.01 0.01 0.01 0.01 0.02 0.02 0.03 0.03
0.00 0.00 0.00 0.00 0.00 0.00 0.00 0.00 0.00 0.00 0.00 0.00 0.00 0.00 0.00 0.01 0.01 0.02 0.02 0.02 0.02 0.03 0.03 0.04 0.04 0.03 0.02 0.01 0.01 0.01 0.01 0.01 0.00 0.00 0.00 0.01 0.01 0.02 0.02 0.02 0.02 0.03 0.03
0.00 0.00 0.00 0.00 0.00 0.00 0.00 0.00 0.00 0.00 0.00 0.00 0.00 0.00 0.01 0.03 0.03 0.03 0.02 0.02 0.02 0.03 0.02 0.02 0.02 0.02 0.01 0.01 0.01 0.01 0.00 0.00 0.00 0.00 0.01 0.01 0.01 0.01 0.01 0.02 0.03 0.04 0.03
0.00 0.00 0.00 0.00 0.00 0.00 0.00 0.00 0.00 0.00 0.00 0.00 0.00 0.00 0.00 0.01 0.02 0.02 0.01 0.01 0.02 0.01 0.01 0.01 0.01 0.01 0.01 0.00 0.00 0.00 0.00 0.00 0.00 0.01 0.01 0.02 0.02 0.02 0.03 0.03 0.04 0.03 0.03
0.00 0.00 0.00 0.00 0.00 0.00 0.00 0.00 0.00 0.00 0.00 0.00 0.00 0.00 0.00 0.00 0.01 0.01 0.01 0.01 0.01 0.01 0.00 0.00 0.00 0.00 0.00 0.00 0.00 0.00 0.00 0.00 0.00 0.01 0.03 0.03 0.03 0.06 0.07 0.07 0.06 0.07 0.09
0.00 0.00 0.00 0.00 0.00 0.00 0.00 0.00 0.00 0.00 0.00 0.00 0.00 0.00 0.00 0.01 0.01 0.00 0.00 0.00 0.00 0.00 0.00 0.00 0.00 0.00 0.00 0.00 0.00 0.00 0.01 0.01 0.01 0.01 0.01 0.01 0.02 0.04 0.06 0.06 0.06 0.06 0.06
0.00 0.00 0.00 0.00 0.00 0.00 0.00 0.00 0.00 0.00 0.00 0.00 0.00 0.00 0.01 0.01 0.01 0.00 0.00 0.00 0.00 0.00 0.00 0.00 0.00 0.00 0.00 0.00 0.00 0.01 0.01 0.01 0.01 0.01 0.01 0.01 0.02 0.03 0.03 0.03 0.02 0.01 0.01

GEFSGL_prec_meanprecacc_024.txt.gz
Total_Precipitation_Accumulation
0.50 0.52 0.45 0.37 0.32 0.28 0.25 0.22 0.18 0.16 0.14 0.12 0.08 0.07 0.07 0.06 0.04 0.03 0.02 0.02 0.03 0.06 0.07 0.09 0.15 0.23 0.27 0.29 0.32 0.42 0.48 0.42 0.31 0.32 0.24 0.23 0.23 0.16 0.14 0.07 0.02 0.01 0.01
0.46 0.44 0.39 0.33 0.29 0.28 0.25 0.20 0.16 0.14 0.12 0.08 0.07 0.07 0.07 0.05 0.03 0.02 0.02 0.01 0.02 0.02 0.02 0.04 0.08 0.15 0.21 0.27 0.32 0.37 0.43 0.49 0.45 0.44 0.41 0.31 0.28 0.26 0.24 0.18 0.09 0.05 0.03
0.52 0.44 0.41 0.38 0.35 0.32 0.25 0.20 0.16 0.16 0.15 0.12 0.10 0.09 0.08 0.07 0.05 0.03 0.02 0.02 0.01 0.01 0.01 0.02 0.05 0.09 0.14 0.22 0.31 0.40 0.44 0.48 0.49 0.44 0.48 0.48 0.37 0.33 0.25 0.17 0.10 0.08 0.07
0.79 0.65 0.56 0.47 0.39 0.33 0.28 0.26 0.22 0.21 0.20 0.16 0.15 0.15 0.17 0.19 0.16 0.11 0.08 0.05 0.03 0.02 0.01 0.02 0.02 0.05 0.12 0.25 0.38 0.47 0.50 0.50 0.52 0.52 0.53 0.56 0.48 0.37 0.26 0.20 0.18 0.14 0.10
0.87 0.74 0.60 0.47 0.37 0.35 0.38 0.39 0.33 0.28 0.28 0.24 0.22 0.20 0.25 0.30 0.32 0.28 0.18 0.11 0.07 0.04 0.02 0.02 0.02 0.03 0.08 0.18 0.31 0.49 0.54 0.55 0.56 0.57 0.56 0.51 0.44 0.34 0.27 0.22 0.18 0.20 0.14
0.72 0.68 0.52 0.45 0.40 0.36 0.38 0.44 0.43 0.33 0.31 0.30 0.27 0.24 0.25 0.28 0.39 0.33 0.22 0.15 0.11 0.08 0.05 0.03 0.03 0.03 0.04 0.08 0.12 0.25 0.38 0.47 0.54 0.53 0.53 0.50 0.46 0.39 0.35 0.27 0.18 0.14 0.14
0.44 0.45 0.36 0.34 0.40 0.41 0.43 0.43 0.36 0.29 0.32 0.33 0.27 0.22 0.19 0.22 0.24 0.19 0.20 0.23 0.20 0.14 0.11 0.08 0.07 0.05 0.04 0.05 0.09 0.15 0.19 0.22 0.27 0.32 0.39 0.41 0.43 0.39 0.34 0.27 0.20 0.16 0.18
0.20 0.16 0.13 0.21 0.30 0.31 0.29 0.27 0.22 0.22 0.27 0.34 0.28 0.25 0.24 0.20 0.20 0.23 0.21 0.23 0.28 0.27 0.20 0.11 0.10 0.08 0.09 0.11 0.09 0.12 0.15 0.19 0.19 0.17 0.22 0.27 0.28 0.31 0.32 0.34 0.31 0.21 0.15
0.02 0.02 0.04 0.05 0.06 0.06 0.06 0.07 0.10 0.15 0.18 0.17 0.20 0.33 0.31 0.26 0.30 0.28 0.21 0.22 0.28 0.31 0.26 0.22 0.21 0.20 0.28 0.21 0.14 0.14 0.16 0.18 0.19 0.22 0.28 0.30 0.30 0.33 0.36 0.40 0.36 0.29 0.24
0.00 0.00 0.00 0.00 0.01 0.01 0.01 0.01 0.03 0.06 0.08 0.08 0.11 0.21 0.27 0.28 0.26 0.15 0.17 0.24 0.28 0.33 0.33 0.30 0.37 0.29 0.31 0.22 0.14 0.21 0.24 0.23 0.23 0.29 0.30 0.31 0.29 0.31 0.37 0.38 0.43 0.44 0.40
0.00 0.00 0.00 0.00 0.00 0.01 0.02 0.01 0.00 0.01 0.01 0.04 0.06 0.06 0.08 0.09 0.09 0.08 0.14 0.17 0.19 0.26 0.29 0.27 0.22 0.22 0.18 0.17 0.15 0.18 0.26 0.20 0.19 0.24 0.22 0.19 0.18 0.20 0.24 0.28 0.35 0.39 0.41
0.00 0.00 0.00 0.00 0.01 0.01 0.02 0.01 0.00 0.00 0.01 0.01 0.01 0.01 0.01 0.02 0.01 0.02 0.03 0.04 0.06 0.11 0.13 0.15 0.14 0.14 0.13 0.15 0.12 0.15 0.18 0.12 0.15 0.19 0.17 0.13 0.13 0.13 0.13 0.15 0.19 0.25 0.30
0.00 0.01 0.00 0.00 0.01 0.00 0.01 0.01 0.01 0.01 0.01 0.01 0.01 0.01 0.02 0.04 0.03 0.02 0.02 0.02 0.02 0.03 0.04 0.08 0.11 0.15 0.12 0.11 0.11 0.12 0.11 0.12 0.18 0.19 0.17 0.13 0.10 0.09 0.09 0.09 0.11 0.14 0.18
0.00 0.00 0.00 0.00 0.01 0.00 0.00 0.00 0.00 0.01 0.01 0.01 0.01 0.03 0.06 0.08 0.05 0.02 0.03 0.04 0.05 0.04 0.05 0.10 0.15 0.17 0.14 0.14 0.13 0.11 0.13 0.16 0.18 0.19 0.17 0.11 0.06 0.06 0.08 0.08 0.10 0.10 0.11
0.00 0.00 0.00 0.00 0.01 0.01 0.00 0.00 0.00 0.00 0.00 0.01 0.01 0.02 0.02 0.03 0.02 0.02 0.04 0.06 0.06 0.05 0.10 0.22 0.31 0.27 0.22 0.17 0.15 0.17 0.18 0.18 0.18 0.19 0.18 0.12 0.09 0.08 0.07 0.05 0.05 0.07 0.09
0.00 0.00 0.00 0.00 0.01 0.01 0.01 0.01 0.00 0.01 0.01 0.01 0.01 0.01 0.01 0.02 0.03 0.06 0.09 0.12 0.12 0.15 0.24 0.38 0.45 0.47 0.44 0.36 0.28 0.26 0.26 0.24 0.23 0.22 0.20 0.16 0.13 0.11 0.09 0.07 0.06 0.07 0.08
0.00 0.00 0.00 0.00 0.00 0.00 0.00 0.01 0.02 0.01 0.01 0.00 0.00 0.01 0.01 0.03 0.06 0.13 0.18 0.20 0.25 0.44 0.59 0.62 0.62 0.62 0.61 0.49 0.37 0.30 0.23 0.20 0.20 0.19 0.16 0.12 0.10 0.07 0.06 0.05 0.05 0.05 0.05
0.00 0.00 0.00 0.00 0.00 0.00 0.00 0.00 0.02 0.03 0.04 0.02 0.01 0.00 0.01 0.02 0.08 0.18 0.28 0.38 0.44 0.58 0.70 0.72 0.77 0.74 0.67 0.49 0.33 0.23 0.15 0.12 0.11 0.09 0.07 0.04 0.03 0.03 0.02 0.02 0.03 0.02 0.02
0.00 0.00 0.00 0.00 0.00 0.00 0.00 0.00 0.00 0.01 0.01 0.02 0.02 0.01 0.00 0.01 0.03 0.08 0.15 0.20 0.22 0.30 0.38 0.43 0.46 0.44 0.38 0.26 0.16 0.11 0.05 0.02 0.01 0.01 0.01 0.01 0.01 0.01 0.02 0.02 0.03 0.02 0.03
0.00 0.00 0.00 0.00 0.00 0.00 0.00 0.00 0.00 0.00 0.01 0.01 0.01 0.01 0.01 0.02 0.03 0.03 0.04 0.05 0.07 0.09 0.12 0.12 0.12 0.11 0.09 0.06 0.03 0.03 0.03 0.01 0.01 0.00 0.01 0.01 0.02 0.02 0.02 0.02 0.03 0.04 0.04
0.00 0.00 0.00 0.00 0.00 0.00 0.00 0.00 0.00 0.00 0.00 0.00 0.00 0.00 0.01 0.02 0.02 0.02 0.02 0.03 0.03 0.03 0.03 0.04 0.04 0.03 0.02 0.01 0.01 0.01 0.01 0.01 0.00 0.00 0.01 0.01 0.02 0.03 0.03 0.03 0.03 0.03 0.04
0.00 0.00 0.00 0.00 0.00 0.00 0.00 0.00 0.00 0.00 0.00 0.00 0.00 0.00 0.01 0.03 0.04 0.03 0.02 0.02 0.02 0.03 0.02 0.02 0.02 0.02 0.01 0.01 0.01 0.01 0.00 0.00 0.01 0.01 0.01 0.01 0.02 0.02 0.02 0.02 0.03 0.04 0.04
0.00 0.00 0.00 0.00 0.00 0.00 0.00 0.00 0.00 0.00 0.00 0.00 0.00 0.00 0.01 0.02 0.02 0.02 0.02 0.02 0.02 0.02 0.01 0.01 0.01 0.01 0.01 0.01 0.00 0.00 0.00 0.00 0.01 0.01 0.02 0.02 0.03 0.03 0.03 0.04 0.04 0.04 0.03
0.00 0.00 0.00 0.00 0.00 0.00 0.00 0.00 0.00 0.00 0.00 0.00 0.00 0.01 0.00 0.01 0.01 0.01 0.01 0.01 0.01 0.01 0.00 0.00 0.00 0.00 0.00 0.00 0.00 0.00 0.00 0.00 0.01 0.02 0.03 0.03 0.04 0.06 0.07 0.07 0.06 0.07 0.09
0.00 0.00 0.00 0.00 0.00 0.00 0.00 0.00 0.00 0.00 0.00 0.00 0.00 0.01 0.01 0.01 0.01 0.01 0.00 0.00 0.00 0.00 0.00 0.00 0.00 0.00 0.00 0.00 0.00 0.00 0.01 0.01 0.01 0.01 0.01 0.01 0.02 0.04 0.06 0.06 0.06 0.06 0.06
0.00 0.00 0.00 0.00 0.00 0.00 0.00 0.00 0.00 0.00 0.00 0.00 0.00 0.01 0.01 0.01 0.01 0.00 0.00 0.00 0.00 0.00 0.00 0.00 0.00 0.00 0.00 0.00 0.00 0.01 0.01 0.01 0.01 0.01 0.01 0.01 0.02 0.03 0.03 0.03 0.02 0.01 0.01

GEFSGL_prec_meanprecacc_030.txt.gz
Total_Precipitation_Accumulation
0.52 0.54 0.48 0.40 0.34 0.31 0.28 0.26 0.24 0.22 0.22 0.20 0.18 0.17 0.16 0.15 0.16 0.14 0.11 0.09 0.08 0.09 0.09 0.11 0.16 0.23 0.27 0.30 0.33 0.43 0.50 0.44 0.32 0.34 0.27 0.26 0.27 0.22 0.22 0.15 0.07 0.04 0.03
0.50 0.47 0.43 0.37 0.33 0.33 0.31 0.27 0.24 0.21 0.21 0.19 0.19 0.21 0.21 0.20 0.17 0.16 0.14 0.09 0.07 0.06 0.04 0.05 0.10 0.16 0.22 0.28 0.33 0.37 0.44 0.51 0.46 0.46 0.45 0.36 0.33 0.32 0.32 0.28 0.18 0.11 0.09
0.59 0.49 0.46 0.44 0.41 0.37 0.32 0.30 0.28 0.30 0.33 0.32 0.33 0.37 0.34 0.32 0.26 0.22 0.20 0.16 0.11 0.08 0.07 0.06 0.08 0.10 0.15 0.22 0.31 0.41 0.45 0.50 0.51 0.46 0.51 0.53 0.42 0.39 0.31 0.25 0.19 0.18 0.18
0.86 0.72 0.62 0.54 0.47 0.41 0.37 0.36 0.34 0.37 0.41 0.40 0.44 0.49 0.53 0.54 0.50 0.41 0.33 0.27 0.20 0.15 0.13 0.10 0.08 0.08 0.14 0.26 0.39 0.47 0.51 0.51 0.53 0.53 0.55 0.58 0.50 0.41 0.29 0.24 0.25 0.25 0.23
0.91 0.78 0.64 0.52 0.42 0.40 0.44 0.45 0.41 0.37 0.39 0.38 0.44 0.50 0.56 0.62 0.63 0.56 0.40 0.28 0.21 0.16 0.11 0.09 0.09 0.08 0.10 0.19 0.32 0.50 0.54 0.56 0.56 0.58 0.58 0.53 0.46 0.36 0.29 0.26 0.24 0.30 0.25
0.73 0.69 0.54 0.47 0.42 0.38 0.40 0.47 0.47 0.37 0.35 0.36 0.38 0.34 0.34 0.39 0.50 0.43 0.28 0.21 0.18 0.16 0.12 0.09 0.09 0.07 0.07 0.10 0.13 0.25 0.38 0.48 0.55 0.54 0.55 0.51 0.47 0.41 0.37 0.29 0.22 0.20 0.21
0.44 0.45 0.36 0.34 0.40 0.41 0.44 0.43 0.37 0.30 0.32 0.34 0.29 0.23 0.20 0.23 0.26 0.20 0.21 0.24 0.22 0.17 0.15 0.13 0.14 0.12 0.10 0.11 0.12 0.17 0.20 0.23 0.27 0.33 0.40 0.42 0.44 0.41 0.36 0.29 0.22 0.17 0.21
0.20 0.16 0.13 0.21 0.30 0.31 0.29 0.27 0.22 0.22 0.27 0.34 0.28 0.25 0.24 0.20 0.20 0.23 0.21 0.23 0.29 0.28 0.23 0.16 0.17 0.17 0.19 0.24 0.20 0.19 0.20 0.22 0.21 0.19 0.23 0.28 0.29 0.32 0.32 0.34 0.31 0.21 0.15
0.02 0.02 0.04 0.05 0.06 0.06 0.06 0.07 0.10 0.15 0.18 0.17 0.20 0.33 0.31 0.26 0.30 0.28 0.21 0.22 0.29 0.32 0.28 0.25 0.25 0.27 0.39 0.36 0.25 0.24 0.26 0.27 0.26 0.27 0.31 0.32 0.31 0.34 0.36 0.40 0.36 0.29 0.24
0.00 0.00 0.00 0.01 0.01 0.01 0.01 0.01 0.03 0.06 0.08 0.08 0.11 0.21 0.27 0.28 0.26 0.15 0.17 0.24 0.28 0.33 0.34 0.32 0.41 0.35 0.39 0.32 0.22 0.27 0.32 0.32 0.31 0.35 0.35 0.34 0.31 0.32 0.37 0.38 0.43 0.44 0.40
0.00 0.00 0.00 0.00 0.01 0.01 0.02 0.01 0.00 0.01 0.01 0.04 0.06 0.06 0.08 0.09 0.09 0.08 0.14 0.17 0.19 0.26 0.29 0.28 0.24 0.26 0.22 0.21 0.18 0.21 0.31 0.28 0.29 0.32 0.28 0.24 0.21 0.23 0.26 0.29 0.36 0.39 0.41
0.00 0.00 0.00 0.00 0.01 0.01 0.02 0.01 0.00 0.00 0.01 0.01 0.01 0.01 0.01 0.02 0.01 0.02 0.03 0.04 0.06 0.11 0.13 0.15 0.14 0.15 0.14 0.17 0.14 0.18 0.22 0.17 0.22 0.25 0.21 0.17 0.17 0.17 0.16 0.18 0.20 0.25 0.30
0.00 0.01 0.00 0.00 0.01 0.00 0.01 0.01 0.01 0.01 0.01 0.01 0.01 0.01 0.02 0.04 0.03 0.02 0.02 0.02 0.02 0.03 0.04 0.08 0.12 0.15 0.13 0.12 0.13 0.14 0.14 0.15 0.22 0.22 0.20 0.17 0.12 0.11 0.10 0.11 0.12 0.14 0.18
0.00 0.00 0.00 0.00 0.01 0.00 0.00 0.00 0.00 0.01 0.01 0.01 0.01 0.03 0.06 0.08 0.05 0.02 0.03 0.04 0.05 0.04 0.05 0.10 0.15 0.18 0.15 0.15 0.15 0.13 0.15 0.19 0.21 0.21 0.20 0.14 0.08 0.08 0.09 0.10 0.10 0.10 0.11
0.00 0.00 0.00 0.00 0.01 0.01 0.00 0.00 0.00 0.00 0.00 0.01 0.01 0.02 0.02 0.03 0.02 0.03 0.04 0.06 0.06 0.06 0.11 0.23 0.32 0.29 0.24 0.20 0.18 0.20 0.22 0.21 0.19 0.21 0.20 0.14 0.09 0.09 0.08 0.06 0.06 0.07 0.09
0.00 0.00 0.00 0.00 0.01 0.01 0.01 0.01 0.00 0.01 0.01 0.01 0.01 0.01 0.01 0.02 0.03 0.06 0.09 0.12 0.12 0.17 0.25 0.40 0.47 0.50 0.47 0.39 0.32 0.29 0.29 0.27 0.25 0.23 0.21 0.17 0.14 0.12 0.10 0.08 0.06 0.07 0.08
0.00 0.00 0.00 0.00 0.00 0.00 0.00 0.01 0.02 0.01 0.01 0.00 0.00 0.01 0.01 0.03 0.06 0.13 0.18 0.20 0.26 0.44 0.60 0.63 0.64 0.64 0.63 0.52 0.40 0.32 0.25 0.22 0.21 0.20 0.17 0.13 0.10 0.08 0.06 0.05 0.05 0.05 0.05
0.00 0.00 0.00 0.00 0.00 0.00 0.00 0.00 0.02 0.03 0.04 0.02 0.01 0.00 0.01 0.02 0.08 0.18 0.28 0.38 0.44 0.58 0.71 0.72 0.77 0.74 0.68 0.50 0.33 0.24 0.16 0.13 0.12 0.09 0.07 0.05 0.03 0.03 0.02 0.02 0.03 0.02 0.02
0.00 0.00 0.00 0.00 0.00 0.00 0.00 0.00 0.00 0.01 0.01 0.02 0.02 0.01 0.00 0.01 0.03 0.08 0.15 0.20 0.22 0.31 0.38 0.43 0.46 0.44 0.38 0.27 0.16 0.11 0.05 0.02 0.02 0.01 0.01 0.01 0.01 0.01 0.02 0.02 0.03 0.02 0.03
0.00 0.00 0.00 0.00 0.00 0.00 0.00 0.00 0.00 0.00 0.01 0.01 0.01 0.01 0.01 0.02 0.04 0.03 0.04 0.05 0.07 0.09 0.12 0.12 0.12 0.11 0.09 0.06 0.03 0.03 0.03 0.01 0.01 0.00 0.01 0.01 0.02 0.02 0.02 0.03 0.04 0.04 0.04
0.00 0.00 0.00 0.00 0.00 0.00 0.00 0.00 0.00 0.00 0.00 0.00 0.00 0.00 0.01 0.02 0.02 0.02 0.02 0.03 0.03 0.03 0.03 0.04 0.04 0.03 0.02 0.01 0.01 0.01 0.01 0.01 0.00 0.00 0.01 0.01 0.02 0.03 0.03 0.03 0.03 0.03 0.04
0.00 0.00 0.00 0.00 0.00 0.00 0.00 0.00 0.00 0.00 0.00 0.00 0.00 0.00 0.01 0.03 0.04 0.03 0.02 0.02 0.02 0.03 0.02 0.02 0.02 0.02 0.01 0.01 0.01 0.01 0.00 0.00 0.01 0.01 0.01 0.01 0.02 0.02 0.02 0.02 0.03 0.04 0.04
0.00 0.00 0.00 0.00 0.00 0.00 0.00 0.00 0.00 0.00 0.00 0.00 0.00 0.00 0.01 0.02 0.02 0.02 0.02 0.02 0.02 0.02 0.01 0.01 0.01 0.01 0.01 0.01 0.00 0.00 0.00 0.00 0.01 0.01 0.02 0.02 0.03 0.03 0.03 0.04 0.04 0.04 0.03
0.00 0.00 0.00 0.00 0.00 0.00 0.00 0.00 0.00 0.00 0.00 0.00 0.00 0.01 0.00 0.01 0.01 0.01 0.01 0.01 0.01 0.01 0.00 0.00 0.00 0.00 0.00 0.00 0.00 0.00 0.00 0.00 0.01 0.02 0.03 0.03 0.04 0.06 0.07 0.07 0.06 0.07 0.09
0.00 0.00 0.00 0.00 0.00 0.00 0.00 0.00 0.00 0.00 0.00 0.00 0.00 0.01 0.01 0.01 0.01 0.01 0.00 0.00 0.00 0.00 0.00 0.00 0.00 0.00 0.00 0.00 0.00 0.00 0.01 0.01 0.01 0.01 0.01 0.01 0.02 0.04 0.06 0.06 0.06 0.06 0.06
0.00 0.00 0.00 0.00 0.00 0.00 0.00 0.00 0.00 0.00 0.00 0.00 0.00 0.01 0.01 0.01 0.01 0.00 0.00 0.00 0.00 0.00 0.00 0.00 0.00 0.00 0.00 0.00 0.00 0.01 0.01 0.01 0.01 0.01 0.01 0.01 0.02 0.03 0.03 0.03 0.02 0.01 0.01

GEFSGL_prec_meanprecacc_036.txt.gz
Total_Precipitation_Accumulation
0.57 0.57 0.52 0.44 0.37 0.32 0.30 0.28 0.25 0.24 0.25 0.25 0.23 0.23 0.22 0.21 0.22 0.20 0.17 0.15 0.15 0.16 0.15 0.17 0.21 0.28 0.32 0.34 0.37 0.45 0.52 0.45 0.33 0.34 0.27 0.26 0.27 0.22 0.22 0.15 0.08 0.05 0.04
0.56 0.53 0.48 0.42 0.36 0.35 0.33 0.28 0.25 0.22 0.23 0.22 0.23 0.26 0.27 0.27 0.26 0.24 0.20 0.16 0.14 0.13 0.10 0.11 0.15 0.21 0.26 0.31 0.34 0.39 0.45 0.52 0.47 0.46 0.45 0.36 0.33 0.32 0.32 0.29 0.18 0.12 0.10
0.65 0.55 0.51 0.48 0.44 0.40 0.35 0.33 0.30 0.33 0.35 0.34 0.37 0.42 0.41 0.40 0.35 0.33 0.29 0.24 0.20 0.17 0.15 0.13 0.15 0.17 0.20 0.25 0.33 0.41 0.46 0.51 0.51 0.46 0.51 0.53 0.43 0.40 0.32 0.26 0.19 0.19 0.19
0.88 0.75 0.66 0.58 0.51 0.45 0.40 0.38 0.36 0.39 0.43 0.42 0.48 0.53 0.60 0.63 0.59 0.51 0.43 0.36 0.30 0.25 0.21 0.17 0.15 0.14 0.18 0.29 0.40 0.48 0.51 0.51 0.53 0.53 0.55 0.58 0.51 0.41 0.30 0.25 0.27 0.27 0.25
0.91 0.79 0.65 0.54 0.44 0.42 0.45 0.47 0.43 0.39 0.41 0.40 0.46 0.53 0.60 0.68 0.70 0.64 0.47 0.34 0.28 0.23 0.19 0.16 0.16 0.14 0.14 0.23 0.34 0.51 0.55 0.56 0.57 0.58 0.58 0.53 0.46 0.36 0.30 0.26 0.25 0.31 0.27
0.73 0.69 0.54 0.47 0.42 0.38 0.41 0.47 0.48 0.38 0.36 0.38 0.41 0.36 0.36 0.41 0.53 0.46 0.32 0.25 0.22 0.19 0.17 0.15 0.16 0.13 0.10 0.12 0.14 0.27 0.39 0.48 0.55 0.54 0.55 0.51 0.47 0.41 0.37 0.29 0.22 0.20 0.22
0.44 0.45 0.36 0.34 0.40 0.41 0.44 0.43 0.37 0.30 0.32 0.34 0.29 0.23 0.20 0.24 0.26 0.21 0.23 0.27 0.24 0.19 0.19 0.19 0.19 0.16 0.14 0.15 0.14 0.18 0.20 0.23 0.28 0.34 0.40 0.42 0.44 0.41 0.36 0.29 0.22 0.18 0.21
0.20 0.16 0.13 0.21 0.30 0.31 0.29 0.27 0.22 0.22 0.27 0.34 0.28 0.25 0.24 0.20 0.21 0.23 0.22 0.24 0.30 0.30 0.25 0.20 0.21 0.21 0.23 0.28 0.22 0.22 0.22 0.23 0.22 0.19 0.23 0.28 0.29 0.32 0.32 0.34 0.31 0.22 0.15
0.02 0.02 0.04 0.05 0.06 0.06 0.06 0.07 0.10 0.15 0.18 0.17 0.20 0.33 0.31 0.26 0.31 0.28 0.22 0.23 0.30 0.33 0.29 0.26 0.27 0.30 0.42 0.40 0.29 0.27 0.28 0.28 0.27 0.28 0.32 0.32 0.32 0.34 0.37 0.40 0.36 0.29 0.24
0.00 0.00 0.00 0.01 0.01 0.01 0.01 0.01 0.03 0.06 0.08 0.08 0.11 0.21 0.27 0.28 0.26 0.16 0.18 0.24 0.29 0.34 0.35 0.33 0.43 0.39 0.43 0.36 0.26 0.30 0.34 0.34 0.33 0.37 0.36 0.35 0.31 0.32 0.37 0.38 0.43 0.44 0.40
0.00 0.00 0.00 0.00 0.01 0.01 0.02 0.01 0.00 0.01 0.01 0.04 0.06 0.06 0.08 0.10 0.09 0.09 0.14 0.17 0.19 0.27 0.30 0.29 0.26 0.29 0.25 0.24 0.23 0.25 0.36 0.32 0.32 0.36 0.29 0.25 0.22 0.23 0.26 0.29 0.36 0.39 0.41
0.00 0.00 0.00 0.00 0.01 0.01 0.02 0.01 0.00 0.00 0.01 0.01 0.01 0.01 0.01 0.02 0.01 0.02 0.03 0.04 0.07 0.11 0.14 0.16 0.16 0.17 0.17 0.20 0.18 0.24 0.27 0.21 0.25 0.28 0.23 0.19 0.19 0.18 0.17 0.18 0.21 0.26 0.31
0.00 0.01 0.00 0.00 0.01 0.00 0.01 0.01 0.01 0.01 0.01 0.01 0.01 0.01 0.02 0.05 0.03 0.02 0.02 0.02 0.03 0.04 0.06 0.09 0.13 0.18 0.15 0.15 0.17 0.20 0.18 0.18 0.25 0.25 0.23 0.19 0.14 0.13 0.10 0.11 0.13 0.15 0.18
0.00 0.00 0.00 0.00 0.01 0.00 0.00 0.00 0.00 0.01 0.01 0.01 0.01 0.03 0.06 0.08 0.05 0.02 0.03 0.05 0.05 0.05 0.06 0.12 0.17 0.21 0.17 0.18 0.17 0.17 0.19 0.22 0.24 0.23 0.21 0.16 0.10 0.09 0.10 0.10 0.11 0.10 0.11
0.00 0.00 0.00 0.00 0.01 0.01 0.00 0.00 0.00 0.00 0.00 0.01 0.01 0.02 0.02 0.03 0.02 0.03 0.05 0.06 0.07 0.06 0.12 0.25 0.33 0.30 0.25 0.21 0.20 0.22 0.25 0.23 0.22 0.21 0.20 0.15 0.11 0.10 0.08 0.06 0.06 0.07 0.09
0.00 0.00 0.00 0.00 0.01 0.01 0.01 0.01 0.00 0.01 0.01 0.01 0.01 0.01 0.01 0.02 0.03 0.06 0.09 0.12 0.13 0.18 0.26 0.41 0.48 0.52 0.48 0.41 0.33 0.31 0.31 0.29 0.26 0.24 0.22 0.18 0.14 0.12 0.10 0.08 0.07 0.07 0.08
0.00 0.00 0.00 0.00 0.00 0.00 0.00 0.01 0.02 0.01 0.01 0.00 0.00 0.01 0.01 0.03 0.06 0.13 0.18 0.21 0.26 0.44 0.60 0.64 0.64 0.65 0.64 0.53 0.41 0.33 0.26 0.23 0.22 0.20 0.17 0.14 0.10 0.08 0.06 0.05 0.05 0.05 0.05
0.00 0.00 0.00 0.00 0.00 0.00 0.00 0.00 0.02 0.03 0.04 0.02 0.01 0.00 0.01 0.02 0.08 0.18 0.28 0.39 0.44 0.58 0.71 0.72 0.78 0.74 0.68 0.50 0.34 0.24 0.16 0.13 0.12 0.10 0.07 0.05 0.03 0.03 0.02 0.02 0.03 0.02 0.02
0.00 0.00 0.00 0.00 0.00 0.00 0.00 0.00 0.00 0.01 0.01 0.02 0.02 0.01 0.00 0.01 0.03 0.08 0.15 0.21 0.22 0.31 0.38 0.44 0.47 0.44 0.38 0.27 0.16 0.11 0.05 0.02 0.02 0.01 0.01 0.01 0.01 0.01 0.02 0.02 0.03 0.02 0.03
0.00 0.00 0.00 0.00 0.00 0.00 0.00 0.00 0.00 0.00 0.01 0.01 0.01 0.01 0.01 0.02 0.04 0.03 0.04 0.05 0.07 0.09 0.12 0.13 0.12 0.11 0.09 0.06 0.03 0.03 0.03 0.01 0.01 0.00 0.01 0.01 0.02 0.02 0.02 0.03 0.04 0.04 0.04
0.00 0.00 0.00 0.00 0.00 0.00 0.00 0.00 0.00 0.00 0.00 0.00 0.00 0.00 0.01 0.02 0.02 0.02 0.02 0.03 0.03 0.03 0.03 0.04 0.04 0.03 0.02 0.01 0.01 0.01 0.01 0.01 0.00 0.00 0.01 0.01 0.02 0.03 0.03 0.03 0.03 0.03 0.04
0.00 0.00 0.00 0.00 0.00 0.00 0.00 0.00 0.00 0.00 0.00 0.00 0.00 0.00 0.01 0.03 0.04 0.03 0.02 0.02 0.02 0.03 0.02 0.02 0.02 0.02 0.01 0.01 0.01 0.01 0.00 0.00 0.01 0.01 0.01 0.01 0.02 0.02 0.02 0.02 0.03 0.04 0.04
0.00 0.00 0.00 0.00 0.00 0.00 0.00 0.00 0.00 0.00 0.00 0.00 0.00 0.00 0.01 0.02 0.02 0.02 0.02 0.02 0.02 0.02 0.01 0.01 0.01 0.01 0.01 0.01 0.00 0.00 0.00 0.00 0.01 0.01 0.02 0.02 0.03 0.03 0.03 0.04 0.04 0.04 0.03
0.00 0.00 0.00 0.00 0.00 0.00 0.00 0.00 0.00 0.00 0.00 0.00 0.00 0.01 0.00 0.01 0.01 0.01 0.01 0.01 0.01 0.01 0.00 0.00 0.00 0.00 0.00 0.00 0.00 0.00 0.00 0.00 0.01 0.02 0.03 0.03 0.04 0.06 0.07 0.07 0.06 0.07 0.09
0.00 0.00 0.00 0.00 0.00 0.00 0.00 0.00 0.00 0.00 0.00 0.00 0.00 0.01 0.01 0.01 0.01 0.01 0.00 0.00 0.00 0.00 0.00 0.00 0.00 0.00 0.00 0.00 0.00 0.00 0.01 0.01 0.01 0.01 0.01 0.01 0.02 0.04 0.06 0.06 0.06 0.06 0.06
0.00 0.00 0.00 0.00 0.00 0.00 0.00 0.00 0.00 0.00 0.00 0.00 0.00 0.01 0.01 0.01 0.01 0.00 0.00 0.00 0.00 0.00 0.00 0.00 0.00 0.00 0.00 0.00 0.00 0.01 0.01 0.01 0.01 0.01 0.01 0.01 0.02 0.03 0.03 0.03 0.02 0.01 0.01

GEFSGL_prec_meanprecacc_042.txt.gz
Total_Precipitation_Accumulation
0.64 0.66 0.63 0.53 0.42 0.37 0.34 0.31 0.28 0.27 0.27 0.27 0.26 0.26 0.26 0.24 0.26 0.25 0.24 0.22 0.21 0.21 0.21 0.23 0.29 0.39 0.45 0.47 0.49 0.56 0.62 0.54 0.41 0.42 0.31 0.29 0.29 0.24 0.22 0.15 0.08 0.06 0.05
0.62 0.58 0.53 0.46 0.40 0.39 0.37 0.31 0.28 0.24 0.26 0.25 0.27 0.30 0.30 0.31 0.30 0.29 0.26 0.23 0.21 0.19 0.16 0.15 0.18 0.25 0.31 0.37 0.42 0.46 0.52 0.58 0.54 0.53 0.51 0.39 0.36 0.33 0.33 0.29 0.19 0.13 0.12
0.68 0.57 0.54 0.50 0.47 0.44 0.39 0.37 0.34 0.35 0.38 0.37 0.40 0.45 0.44 0.44 0.41 0.40 0.36 0.32 0.27 0.24 0.22 0.20 0.20 0.22 0.25 0.31 0.40 0.49 0.52 0.56 0.57 0.52 0.55 0.55 0.44 0.41 0.33 0.26 0.20 0.21 0.21
0.89 0.76 0.67 0.59 0.52 0.47 0.42 0.41 0.39 0.42 0.46 0.45 0.50 0.56 0.63 0.68 0.65 0.59 0.52 0.47 0.40 0.34 0.30 0.25 0.20 0.20 0.26 0.38 0.50 0.57 0.58 0.57 0.57 0.57 0.58 0.60 0.52 0.42 0.32 0.28 0.30 0.32 0.29
0.91 0.79 0.65 0.54 0.44 0.42 0.46 0.47 0.44 0.40 0.42 0.42 0.48 0.54 0.62 0.70 0.74 0.70 0.54 0.42 0.39 0.36 0.31 0.26 0.25 0.23 0.23 0.32 0.43 0.60 0.61 0.62 0.60 0.61 0.60 0.55 0.47 0.38 0.32 0.30 0.29 0.35 0.30
0.73 0.69 0.54 0.47 0.42 0.38 0.41 0.47 0.48 0.38 0.36 0.38 0.41 0.36 0.37 0.43 0.56 0.51 0.37 0.29 0.29 0.31 0.31 0.29 0.28 0.25 0.21 0.20 0.20 0.33 0.45 0.53 0.60 0.58 0.57 0.53 0.49 0.42 0.39 0.32 0.25 0.24 0.24
0.44 0.45 0.36 0.34 0.40 0.42 0.44 0.43 0.37 0.30 0.33 0.34 0.29 0.23 0.21 0.25 0.28 0.24 0.27 0.31 0.29 0.26 0.29 0.33 0.34 0.29 0.29 0.30 0.22 0.22 0.23 0.26 0.31 0.36 0.42 0.45 0.46 0.42 0.37 0.31 0.25 0.22 0.23
0.20 0.17 0.14 0.21 0.30 0.31 0.30 0.27 0.23 0.22 0.27 0.34 0.28 0.25 0.24 0.21 0.22 0.25 0.24 0.27 0.35 0.35 0.33 0.31 0.35 0.36 0.38 0.42 0.31 0.30 0.27 0.25 0.23 0.20 0.25 0.30 0.30 0.33 0.34 0.36 0.34 0.23 0.16
0.02 0.02 0.04 0.05 0.06 0.06 0.06 0.07 0.10 0.15 0.18 0.17 0.20 0.33 0.32 0.26 0.31 0.30 0.23 0.24 0.31 0.36 0.34 0.34 0.38 0.40 0.54 0.52 0.42 0.38 0.36 0.31 0.29 0.30 0.34 0.33 0.33 0.36 0.38 0.41 0.36 0.29 0.25
0.00 0.00 0.00 0.01 0.01 0.01 0.01 0.01 0.03 0.06 0.08 0.08 0.11 0.21 0.27 0.28 0.27 0.17 0.18 0.25 0.30 0.36 0.38 0.38 0.51 0.47 0.52 0.45 0.37 0.42 0.46 0.38 0.34 0.38 0.37 0.35 0.32 0.33 0.39 0.40 0.45 0.46 0.41
0.00 0.00 0.00 0.00 0.01 0.01 0.02 0.01 0.00 0.01 0.01 0.04 0.06 0.06 0.08 0.10 0.09 0.09 0.15 0.18 0.20 0.28 0.33 0.34 0.30 0.36 0.32 0.30 0.31 0.34 0.46 0.38 0.35 0.37 0.30 0.25 0.22 0.23 0.27 0.29 0.37 0.41 0.43
0.00 0.00 0.00 0.00 0.01 0.01 0.02 0.01 0.00 0.00 0.01 0.01 0.01 0.01 0.02 0.02 0.02 0.03 0.03 0.05 0.08 0.12 0.17 0.22 0.21 0.22 0.22 0.25 0.23 0.30 0.35 0.29 0.28 0.30 0.25 0.21 0.20 0.19 0.17 0.18 0.21 0.26 0.31
0.00 0.01 0.00 0.00 0.01 0.00 0.01 0.01 0.01 0.01 0.01 0.01 0.01 0.01 0.03 0.05 0.04 0.02 0.02 0.03 0.04 0.05 0.08 0.13 0.17 0.21 0.18 0.18 0.21 0.28 0.25 0.24 0.30 0.29 0.25 0.21 0.15 0.13 0.11 0.11 0.13 0.15 0.18
0.00 0.00 0.00 0.00 0.01 0.00 0.00 0.00 0.00 0.01 0.01 0.01 0.01 0.03 0.06 0.08 0.05 0.03 0.03 0.05 0.06 0.05 0.07 0.14 0.20 0.25 0.20 0.20 0.21 0.22 0.25 0.29 0.32 0.29 0.24 0.17 0.11 0.10 0.10 0.10 0.11 0.10 0.11
0.00 0.00 0.00 0.00 0.01 0.01 0.00 0.00 0.00 0.00 0.01 0.01 0.01 0.02 0.03 0.03 0.02 0.03 0.05 0.06 0.07 0.07 0.13 0.26 0.35 0.33 0.29 0.24 0.23 0.25 0.27 0.27 0.26 0.26 0.23 0.16 0.13 0.11 0.09 0.06 0.06 0.07 0.09
0.00 0.00 0.00 0.00 0.01 0.01 0.01 0.01 0.00 0.01 0.01 0.01 0.01 0.01 0.01 0.02 0.03 0.06 0.09 0.13 0.13 0.18 0.27 0.42 0.50 0.54 0.51 0.44 0.37 0.35 0.33 0.31 0.28 0.26 0.24 0.19 0.16 0.13 0.10 0.08 0.07 0.07 0.08
0.00 0.00 0.00 0.00 0.00 0.00 0.00 0.01 0.02 0.01 0.01 0.00 0.00 0.01 0.01 0.03 0.06 0.13 0.18 0.21 0.26 0.45 0.60 0.64 0.65 0.66 0.65 0.54 0.43 0.35 0.27 0.24 0.22 0.21 0.19 0.15 0.12 0.09 0.07 0.05 0.05 0.05 0.05
0.00 0.00 0.00 0.00 0.00 0.00 0.00 0.00 0.02 0.03 0.04 0.02 0.01 0.00 0.01 0.02 0.08 0.18 0.29 0.39 0.44 0.58 0.71 0.72 0.78 0.74 0.68 0.50 0.34 0.25 0.17 0.13 0.12 0.11 0.08 0.06 0.04 0.03 0.03 0.02 0.03 0.02 0.02
0.00 0.00 0.00 0.00 0.00 0.00 0.00 0.00 0.00 0.01 0.01 0.02 0.02 0.01 0.01 0.01 0.03 0.08 0.15 0.21 0.22 0.31 0.38 0.44 0.47 0.44 0.38 0.27 0.16 0.11 0.06 0.03 0.02 0.02 0.02 0.01 0.01 0.01 0.02 0.02 0.03 0.02 0.03
0.00 0.00 0.00 0.00 0.00 0.00 0.00 0.00 0.00 0.00 0.01 0.01 0.01 0.01 0.01 0.02 0.04 0.03 0.04 0.05 0.07 0.09 0.12 0.13 0.12 0.11 0.09 0.06 0.03 0.03 0.03 0.01 0.01 0.00 0.01 0.01 0.02 0.02 0.02 0.03 0.04 0.04 0.04
0.00 0.00 0.00 0.00 0.00 0.00 0.00 0.00 0.00 0.00 0.00 0.00 0.00 0.00 0.01 0.02 0.02 0.02 0.02 0.03 0.03 0.03 0.03 0.04 0.04 0.03 0.02 0.01 0.01 0.01 0.01 0.01 0.00 0.00 0.01 0.01 0.02 0.03 0.03 0.03 0.03 0.03 0.04
0.00 0.00 0.00 0.00 0.00 0.00 0.00 0.00 0.00 0.00 0.00 0.00 0.00 0.00 0.01 0.03 0.04 0.03 0.02 0.02 0.02 0.03 0.02 0.02 0.02 0.02 0.01 0.01 0.01 0.01 0.00 0.00 0.01 0.01 0.01 0.01 0.02 0.02 0.02 0.02 0.03 0.04 0.04
0.00 0.00 0.00 0.00 0.00 0.00 0.00 0.00 0.00 0.00 0.00 0.00 0.00 0.00 0.01 0.02 0.02 0.02 0.02 0.02 0.02 0.02 0.01 0.01 0.01 0.01 0.01 0.01 0.00 0.00 0.00 0.00 0.01 0.01 0.02 0.02 0.03 0.03 0.03 0.04 0.04 0.04 0.03
0.00 0.00 0.00 0.00 0.00 0.00 0.00 0.00 0.00 0.00 0.00 0.00 0.00 0.01 0.00 0.01 0.01 0.01 0.01 0.01 0.01 0.01 0.00 0.00 0.00 0.00 0.00 0.00 0.00 0.00 0.00 0.00 0.01 0.02 0.03 0.03 0.04 0.06 0.07 0.07 0.06 0.07 0.09
0.00 0.00 0.00 0.00 0.00 0.00 0.00 0.00 0.00 0.00 0.00 0.00 0.00 0.01 0.01 0.01 0.01 0.01 0.00 0.00 0.00 0.00 0.00 0.00 0.00 0.00 0.00 0.00 0.00 0.00 0.01 0.01 0.01 0.01 0.01 0.01 0.02 0.04 0.06 0.06 0.06 0.06 0.06
0.00 0.00 0.00 0.00 0.00 0.00 0.00 0.00 0.00 0.00 0.00 0.00 0.00 0.01 0.01 0.01 0.01 0.00 0.00 0.00 0.00 0.00 0.00 0.00 0.00 0.00 0.00 0.00 0.00 0.01 0.01 0.01 0.01 0.01 0.01 0.01 0.02 0.03 0.03 0.03 0.02 0.01 0.01

GEFSGL_prec_meanprecacc_048.txt.gz
Total_Precipitation_Accumulation
0.69 0.71 0.70 0.60 0.47 0.43 0.41 0.38 0.36 0.35 0.39 0.38 0.35 0.35 0.32 0.31 0.33 0.33 0.34 0.36 0.36 0.37 0.35 0.37 0.45 0.54 0.59 0.60 0.61 0.68 0.74 0.66 0.52 0.52 0.39 0.36 0.37 0.29 0.26 0.18 0.12 0.11 0.09
0.65 0.61 0.58 0.51 0.43 0.42 0.39 0.34 0.33 0.32 0.33 0.34 0.34 0.35 0.35 0.37 0.36 0.34 0.31 0.28 0.30 0.30 0.26 0.23 0.25 0.32 0.39 0.47 0.54 0.58 0.63 0.69 0.64 0.63 0.59 0.47 0.44 0.41 0.40 0.35 0.24 0.20 0.19
0.70 0.60 0.56 0.52 0.48 0.46 0.42 0.39 0.37 0.40 0.43 0.42 0.45 0.50 0.49 0.49 0.47 0.45 0.42 0.38 0.34 0.31 0.28 0.27 0.27 0.28 0.31 0.37 0.48 0.58 0.61 0.64 0.66 0.61 0.65 0.64 0.51 0.47 0.41 0.35 0.29 0.31 0.28
0.90 0.77 0.68 0.60 0.53 0.48 0.43 0.43 0.41 0.44 0.48 0.46 0.52 0.59 0.66 0.71 0.70 0.64 0.59 0.52 0.45 0.40 0.36 0.32 0.27 0.26 0.32 0.44 0.55 0.63 0.64 0.63 0.65 0.66 0.68 0.69 0.59 0.49 0.43 0.41 0.43 0.46 0.39
0.92 0.80 0.66 0.55 0.45 0.43 0.46 0.49 0.46 0.41 0.43 0.43 0.49 0.56 0.63 0.72 0.76 0.73 0.59 0.49 0.47 0.45 0.39 0.34 0.31 0.31 0.29 0.37 0.48 0.67 0.68 0.71 0.70 0.71 0.70 0.63 0.54 0.44 0.42 0.45 0.44 0.49 0.42
0.74 0.70 0.54 0.48 0.43 0.39 0.42 0.48 0.49 0.39 0.37 0.38 0.42 0.37 0.38 0.43 0.57 0.52 0.40 0.34 0.37 0.42 0.42 0.38 0.36 0.32 0.28 0.26 0.26 0.40 0.54 0.64 0.71 0.68 0.67 0.63 0.57 0.50 0.52 0.47 0.39 0.36 0.33
0.44 0.45 0.36 0.34 0.41 0.42 0.45 0.44 0.38 0.31 0.33 0.35 0.30 0.24 0.22 0.26 0.29 0.25 0.28 0.34 0.34 0.34 0.39 0.46 0.48 0.41 0.40 0.40 0.31 0.29 0.31 0.35 0.42 0.48 0.55 0.56 0.56 0.51 0.48 0.45 0.41 0.37 0.31
0.20 0.17 0.14 0.21 0.30 0.31 0.30 0.27 0.23 0.22 0.28 0.35 0.29 0.25 0.26 0.22 0.24 0.26 0.26 0.30 0.39 0.40 0.40 0.41 0.50 0.52 0.51 0.55 0.48 0.49 0.40 0.32 0.31 0.31 0.37 0.39 0.37 0.42 0.46 0.52 0.49 0.34 0.23
0.02 0.02 0.04 0.05 0.06 0.06 0.06 0.07 0.11 0.15 0.19 0.17 0.21 0.34 0.33 0.28 0.33 0.31 0.24 0.28 0.36 0.41 0.39 0.42 0.50 0.56 0.68 0.68 0.65 0.62 0.49 0.38 0.38 0.43 0.44 0.41 0.41 0.43 0.45 0.47 0.44 0.37 0.30
0.00 0.00 0.00 0.01 0.01 0.01 0.01 0.01 0.03 0.06 0.09 0.09 0.12 0.22 0.28 0.29 0.28 0.18 0.19 0.28 0.34 0.41 0.44 0.44 0.60 0.59 0.64 0.61 0.58 0.63 0.60 0.45 0.37 0.41 0.40 0.38 0.34 0.37 0.44 0.48 0.54 0.54 0.45
0.00 0.00 0.00 0.00 0.01 0.01 0.02 0.01 0.00 0.01 0.02 0.04 0.07 0.08 0.09 0.10 0.10 0.10 0.15 0.20 0.23 0.33 0.40 0.41 0.36 0.44 0.43 0.45 0.48 0.49 0.60 0.46 0.41 0.42 0.35 0.28 0.24 0.26 0.30 0.34 0.43 0.50 0.50
0.00 0.00 0.00 0.01 0.01 0.01 0.02 0.01 0.00 0.00 0.01 0.02 0.02 0.03 0.03 0.03 0.02 0.03 0.04 0.07 0.11 0.17 0.24 0.28 0.25 0.29 0.32 0.37 0.35 0.41 0.49 0.43 0.38 0.40 0.32 0.25 0.24 0.21 0.19 0.20 0.23 0.29 0.35
0.00 0.01 0.00 0.00 0.01 0.00 0.01 0.01 0.01 0.01 0.01 0.01 0.02 0.02 0.04 0.06 0.04 0.03 0.03 0.04 0.06 0.09 0.13 0.19 0.21 0.26 0.24 0.24 0.29 0.37 0.37 0.41 0.47 0.42 0.35 0.25 0.19 0.16 0.11 0.11 0.13 0.16 0.19
0.00 0.00 0.00 0.00 0.01 0.00 0.01 0.00 0.01 0.01 0.01 0.01 0.02 0.04 0.07 0.09 0.05 0.04 0.05 0.08 0.09 0.09 0.11 0.17 0.22 0.28 0.25 0.24 0.26 0.30 0.34 0.40 0.48 0.42 0.31 0.21 0.14 0.12 0.10 0.10 0.11 0.10 0.11
0.00 0.00 0.00 0.00 0.01 0.01 0.01 0.00 0.00 0.00 0.01 0.01 0.01 0.02 0.03 0.03 0.03 0.03 0.06 0.09 0.09 0.09 0.17 0.30 0.39 0.38 0.35 0.31 0.29 0.34 0.35 0.33 0.35 0.35 0.30 0.20 0.15 0.12 0.09 0.07 0.07 0.08 0.09
0.00 0.00 0.00 0.00 0.01 0.01 0.01 0.01 0.00 0.01 0.01 0.01 0.01 0.01 0.01 0.02 0.03 0.06 0.09 0.13 0.14 0.20 0.33 0.49 0.56 0.60 0.58 0.50 0.45 0.43 0.41 0.37 0.34 0.34 0.31 0.23 0.18 0.14 0.11 0.08 0.07 0.08 0.08
0.00 0.00 0.00 0.00 0.00 0.00 0.00 0.02 0.02 0.01 0.01 0.00 0.00 0.01 0.01 0.03 0.06 0.13 0.18 0.21 0.26 0.47 0.65 0.68 0.67 0.68 0.68 0.57 0.47 0.41 0.32 0.26 0.26 0.27 0.24 0.21 0.16 0.10 0.07 0.06 0.05 0.05 0.05
0.00 0.00 0.00 0.00 0.00 0.00 0.00 0.00 0.02 0.03 0.04 0.02 0.01 0.00 0.01 0.02 0.08 0.18 0.29 0.39 0.45 0.60 0.73 0.73 0.79 0.75 0.69 0.52 0.36 0.28 0.19 0.15 0.16 0.14 0.12 0.09 0.07 0.05 0.03 0.03 0.03 0.02 0.02
0.00 0.00 0.00 0.00 0.00 0.00 0.00 0.00 0.00 0.01 0.01 0.02 0.02 0.01 0.01 0.01 0.03 0.08 0.15 0.21 0.23 0.31 0.39 0.44 0.47 0.45 0.39 0.28 0.18 0.13 0.07 0.05 0.06 0.05 0.05 0.03 0.03 0.02 0.03 0.03 0.03 0.03 0.03
0.00 0.00 0.00 0.00 0.00 0.00 0.00 0.00 0.00 0.00 0.01 0.01 0.01 0.01 0.01 0.02 0.04 0.04 0.04 0.05 0.07 0.10 0.12 0.13 0.12 0.11 0.09 0.07 0.04 0.04 0.04 0.03 0.03 0.02 0.02 0.02 0.02 0.02 0.02 0.03 0.04 0.04 0.05
0.00 0.00 0.00 0.00 0.00 0.00 0.00 0.00 0.00 0.00 0.00 0.00 0.00 0.00 0.01 0.02 0.02 0.02 0.02 0.03 0.03 0.03 0.03 0.04 0.04 0.03 0.02 0.01 0.01 0.02 0.02 0.02 0.01 0.02 0.01 0.02 0.02 0.03 0.03 0.03 0.03 0.04 0.04
0.00 0.00 0.00 0.00 0.00 0.00 0.00 0.00 0.00 0.00 0.00 0.00 0.00 0.00 0.01 0.03 0.04 0.03 0.02 0.02 0.02 0.03 0.02 0.02 0.02 0.02 0.01 0.01 0.01 0.01 0.01 0.01 0.01 0.01 0.01 0.01 0.02 0.02 0.02 0.02 0.03 0.04 0.04
0.00 0.00 0.00 0.00 0.00 0.00 0.00 0.00 0.00 0.00 0.00 0.00 0.00 0.00 0.01 0.02 0.02 0.02 0.02 0.02 0.02 0.02 0.01 0.01 0.01 0.01 0.01 0.01 0.00 0.00 0.00 0.00 0.01 0.01 0.02 0.02 0.03 0.03 0.03 0.04 0.04 0.04 0.03
0.00 0.00 0.00 0.00 0.00 0.00 0.00 0.00 0.00 0.00 0.00 0.00 0.00 0.01 0.00 0.01 0.01 0.01 0.01 0.01 0.01 0.01 0.00 0.00 0.00 0.00 0.00 0.00 0.00 0.00 0.00 0.00 0.01 0.02 0.03 0.03 0.04 0.06 0.07 0.07 0.06 0.07 0.09
0.00 0.00 0.00 0.00 0.00 0.00 0.00 0.00 0.00 0.00 0.00 0.00 0.00 0.01 0.01 0.01 0.01 0.01 0.00 0.00 0.00 0.00 0.00 0.00 0.00 0.00 0.00 0.00 0.00 0.00 0.01 0.01 0.01 0.01 0.01 0.01 0.02 0.04 0.06 0.06 0.06 0.06 0.06
0.00 0.00 0.00 0.00 0.00 0.00 0.00 0.00 0.00 0.00 0.00 0.00 0.00 0.01 0.01 0.01 0.01 0.00 0.00 0.00 0.00 0.00 0.00 0.00 0.00 0.00 0.00 0.00 0.00 0.01 0.01 0.01 0.01 0.01 0.01 0.01 0.02 0.03 0.03 0.03 0.02 0.01 0.01

GEFSGL_prec_meanprecacc_054.txt.gz
Total_Precipitation_Accumulation
0.70 0.71 0.71 0.61 0.48 0.45 0.45 0.43 0.41 0.41 0.47 0.47 0.47 0.50 0.49 0.47 0.47 0.47 0.50 0.56 0.60 0.66 0.66 0.67 0.77 0.87 0.90 0.87 0.82 0.83 0.85 0.74 0.59 0.58 0.44 0.40 0.41 0.34 0.31 0.24 0.21 0.21 0.18
0.65 0.62 0.58 0.51 0.43 0.42 0.41 0.36 0.36 0.36 0.39 0.39 0.41 0.45 0.45 0.49 0.48 0.46 0.45 0.45 0.50 0.56 0.55 0.50 0.52 0.59 0.64 0.72 0.75 0.74 0.76 0.79 0.72 0.70 0.66 0.53 0.48 0.44 0.44 0.40 0.31 0.29 0.29
0.70 0.60 0.56 0.52 0.49 0.47 0.42 0.41 0.39 0.44 0.50 0.48 0.51 0.56 0.54 0.55 0.53 0.51 0.47 0.45 0.45 0.49 0.49 0.47 0.46 0.45 0.49 0.55 0.63 0.70 0.72 0.74 0.73 0.67 0.72 0.71 0.57 0.51 0.46 0.41 0.37 0.40 0.38
0.90 0.77 0.68 0.61 0.54 0.48 0.43 0.43 0.41 0.45 0.50 0.50 0.56 0.62 0.69 0.75 0.74 0.68 0.62 0.54 0.49 0.49 0.51 0.48 0.42 0.38 0.43 0.58 0.67 0.70 0.69 0.69 0.71 0.71 0.73 0.74 0.65 0.53 0.47 0.47 0.51 0.55 0.48
0.92 0.80 0.66 0.55 0.45 0.43 0.46 0.49 0.46 0.41 0.43 0.44 0.51 0.58 0.65 0.74 0.78 0.76 0.61 0.51 0.49 0.49 0.46 0.43 0.40 0.39 0.37 0.46 0.56 0.73 0.72 0.74 0.74 0.75 0.74 0.67 0.58 0.47 0.46 0.50 0.51 0.57 0.50
0.74 0.70 0.54 0.48 0.43 0.39 0.42 0.48 0.49 0.39 0.37 0.39 0.42 0.38 0.39 0.45 0.59 0.54 0.41 0.35 0.39 0.45 0.46 0.45 0.43 0.38 0.33 0.32 0.31 0.45 0.58 0.67 0.74 0.71 0.70 0.66 0.61 0.53 0.56 0.52 0.44 0.41 0.41
0.44 0.45 0.36 0.34 0.41 0.42 0.45 0.44 0.38 0.31 0.33 0.35 0.30 0.24 0.23 0.27 0.31 0.27 0.30 0.35 0.37 0.38 0.43 0.48 0.52 0.47 0.45 0.45 0.35 0.33 0.34 0.38 0.45 0.50 0.57 0.58 0.58 0.54 0.52 0.49 0.45 0.42 0.36
0.20 0.17 0.14 0.21 0.30 0.32 0.30 0.28 0.23 0.22 0.28 0.35 0.29 0.26 0.26 0.23 0.25 0.28 0.27 0.32 0.41 0.44 0.44 0.45 0.53 0.55 0.57 0.62 0.54 0.54 0.44 0.35 0.35 0.35 0.41 0.43 0.40 0.45 0.50 0.58 0.56 0.41 0.30
0.02 0.02 0.04 0.05 0.06 0.06 0.06 0.07 0.11 0.15 0.19 0.17 0.21 0.35 0.33 0.29 0.34 0.32 0.25 0.29 0.37 0.43 0.41 0.45 0.53 0.59 0.74 0.77 0.75 0.69 0.54 0.42 0.43 0.49 0.49 0.46 0.45 0.47 0.48 0.52 0.51 0.44 0.36
0.00 0.00 0.00 0.01 0.01 0.01 0.01 0.01 0.03 0.06 0.09 0.09 0.12 0.23 0.30 0.30 0.29 0.19 0.20 0.29 0.36 0.44 0.47 0.47 0.64 0.65 0.72 0.70 0.67 0.72 0.66 0.50 0.42 0.45 0.45 0.44 0.40 0.43 0.50 0.53 0.59 0.60 0.49
0.00 0.00 0.00 0.00 0.01 0.01 0.02 0.01 0.00 0.01 0.02 0.05 0.08 0.10 0.12 0.12 0.12 0.11 0.17 0.23 0.27 0.37 0.43 0.44 0.40 0.52 0.52 0.55 0.58 0.59 0.70 0.54 0.46 0.46 0.39 0.34 0.30 0.30 0.35 0.38 0.48 0.54 0.53
0.00 0.00 0.00 0.01 0.01 0.01 0.02 0.01 0.01 0.00 0.01 0.02 0.03 0.04 0.04 0.05 0.04 0.05 0.06 0.10 0.15 0.22 0.28 0.32 0.31 0.38 0.43 0.47 0.44 0.52 0.60 0.52 0.43 0.44 0.37 0.29 0.28 0.24 0.22 0.23 0.27 0.32 0.38
0.00 0.01 0.00 0.00 0.01 0.00 0.01 0.01 0.01 0.01 0.01 0.01 0.02 0.03 0.04 0.07 0.06 0.05 0.05 0.07 0.11 0.14 0.17 0.24 0.29 0.35 0.34 0.34 0.39 0.48 0.47 0.48 0.52 0.46 0.40 0.30 0.23 0.19 0.13 0.13 0.17 0.18 0.20
0.00 0.00 0.00 0.00 0.01 0.00 0.01 0.00 0.01 0.01 0.01 0.01 0.02 0.04 0.07 0.09 0.06 0.04 0.07 0.09 0.11 0.11 0.14 0.21 0.29 0.38 0.35 0.34 0.36 0.41 0.43 0.48 0.53 0.46 0.36 0.26 0.17 0.14 0.11 0.11 0.13 0.11 0.12
0.00 0.00 0.00 0.00 0.01 0.01 0.01 0.00 0.00 0.00 0.01 0.01 0.01 0.02 0.03 0.03 0.03 0.04 0.07 0.10 0.10 0.11 0.19 0.33 0.45 0.47 0.44 0.39 0.37 0.41 0.40 0.37 0.38 0.37 0.35 0.26 0.17 0.13 0.10 0.08 0.08 0.08 0.09
0.00 0.00 0.00 0.00 0.01 0.01 0.01 0.01 0.00 0.01 0.01 0.01 0.01 0.01 0.01 0.02 0.03 0.06 0.10 0.13 0.14 0.21 0.35 0.52 0.60 0.66 0.63 0.55 0.50 0.47 0.44 0.39 0.36 0.35 0.35 0.28 0.19 0.14 0.11 0.09 0.08 0.08 0.09
0.00 0.00 0.00 0.00 0.00 0.00 0.00 0.02 0.02 0.01 0.01 0.00 0.00 0.01 0.01 0.03 0.06 0.13 0.19 0.21 0.26 0.47 0.66 0.69 0.69 0.71 0.70 0.60 0.49 0.43 0.34 0.27 0.27 0.27 0.26 0.22 0.17 0.11 0.07 0.06 0.05 0.05 0.05
0.00 0.00 0.00 0.00 0.00 0.00 0.00 0.00 0.02 0.03 0.04 0.02 0.01 0.00 0.01 0.02 0.08 0.18 0.29 0.39 0.45 0.60 0.73 0.74 0.79 0.76 0.70 0.54 0.38 0.30 0.20 0.16 0.16 0.15 0.12 0.09 0.07 0.05 0.03 0.03 0.03 0.02 0.02
0.00 0.00 0.00 0.00 0.00 0.00 0.00 0.00 0.00 0.01 0.01 0.02 0.02 0.01 0.01 0.01 0.03 0.08 0.15 0.21 0.23 0.31 0.39 0.44 0.47 0.45 0.39 0.28 0.18 0.14 0.08 0.06 0.06 0.05 0.05 0.04 0.03 0.02 0.03 0.03 0.03 0.03 0.03
0.00 0.00 0.00 0.00 0.00 0.00 0.00 0.00 0.00 0.00 0.01 0.01 0.01 0.01 0.01 0.02 0.04 0.04 0.04 0.05 0.07 0.10 0.12 0.13 0.12 0.11 0.09 0.07 0.05 0.04 0.04 0.03 0.03 0.02 0.02 0.02 0.03 0.03 0.02 0.03 0.04 0.04 0.05
0.00 0.00 0.00 0.00 0.00 0.00 0.00 0.00 0.00 0.00 0.00 0.00 0.00 0.00 0.01 0.02 0.02 0.02 0.02 0.03 0.03 0.03 0.03 0.04 0.04 0.03 0.02 0.01 0.01 0.02 0.02 0.02 0.01 0.02 0.01 0.02 0.02 0.03 0.03 0.03 0.03 0.04 0.04
0.00 0.00 0.00 0.00 0.00 0.00 0.00 0.00 0.00 0.00 0.00 0.00 0.00 0.00 0.01 0.03 0.04 0.03 0.02 0.02 0.02 0.03 0.02 0.02 0.02 0.02 0.01 0.01 0.01 0.01 0.01 0.01 0.01 0.01 0.01 0.02 0.02 0.03 0.03 0.03 0.03 0.04 0.04
0.00 0.00 0.00 0.00 0.00 0.00 0.00 0.00 0.00 0.00 0.00 0.00 0.00 0.00 0.01 0.02 0.02 0.02 0.02 0.02 0.02 0.02 0.01 0.01 0.01 0.01 0.01 0.01 0.00 0.00 0.00 0.00 0.01 0.01 0.02 0.02 0.03 0.03 0.03 0.04 0.04 0.04 0.03
0.00 0.00 0.00 0.00 0.00 0.00 0.00 0.00 0.00 0.00 0.00 0.00 0.00 0.01 0.00 0.01 0.01 0.01 0.01 0.01 0.01 0.01 0.00 0.00 0.00 0.00 0.00 0.00 0.00 0.00 0.00 0.00 0.01 0.02 0.03 0.03 0.04 0.06 0.07 0.07 0.06 0.07 0.09
0.00 0.00 0.00 0.00 0.00 0.00 0.00 0.00 0.00 0.00 0.00 0.00 0.00 0.01 0.01 0.01 0.01 0.01 0.00 0.00 0.00 0.00 0.00 0.00 0.00 0.00 0.00 0.00 0.00 0.00 0.01 0.01 0.01 0.01 0.01 0.01 0.02 0.04 0.06 0.06 0.06 0.06 0.06
0.00 0.00 0.00 0.00 0.00 0.00 0.00 0.00 0.00 0.00 0.00 0.00 0.00 0.01 0.01 0.01 0.01 0.00 0.00 0.00 0.00 0.00 0.00 0.00 0.00 0.00 0.00 0.00 0.00 0.01 0.01 0.01 0.01 0.01 0.01 0.01 0.02 0.03 0.03 0.03 0.02 0.01 0.01